Miscellaneous Local Product
Issued by NWS Hastings, NE

Home | Current Version | Previous Version | Text Only | Print | Product List | Glossary Off
Versions: 1 2 3 4 5 6 7 8 9 10 11 12 13 14 15 16 17 18 19 20 21 22 23 24 25 26 27 28 29 30 31 32 33 34 35 36 37 38 39 40 41 42 43 44 45 46 47 48 49 50

000
AXUS43 KGID 292202
MISGRI

GID CWA HOURLY WEATHER ROUNDUP
NATIONAL WEATHER SERVICE HASTINGS NE
400 PM CST THU JAN 29 2015

NOTE: "FAIR" INDICATES FEW OR NO CLOUDS BELOW 12,000 FEET WITH NO
SIGNIFICANT WEATHER AND/OR OBSTRUCTIONS TO VISIBILITY.

...SOUTH CENTRAL NEBRASKA...

CITY           SKY/WX    TMP DP  RH WIND       PRES   REMARKS
GRAND ISLAND   SUNNY     45  21  38 N14G23    30.45R
HASTINGS       SUNNY     46  20  35 N15       30.44R
KEARNEY        SUNNY     45  19  36 N15G21    30.44S
ORD            SUNNY     45  20  36 N13       30.43R
YORK           SUNNY     45  25  45 N12G17    30.44R
AURORA         SUNNY     46  23  41 NW16G22   30.44S
LEXINGTON      SUNNY     46  20  35 N10       30.45S
HOLDREGE       SUNNY     45  20  38 N8        30.45S
HEBRON         SUNNY     46  23  40 N9G18     30.45R

...NEBRASKA PANHANDLE...

CITY           SKY/WX    TMP DP  RH WIND       PRES   REMARKS
CHADRON        SUNNY     46  17  31 S3        30.41F
ALLIANCE       SUNNY     45  13  27 CALM      30.41F
SCOTTSBLUFF    SUNNY     49  18  29 N3        30.41F
SIDNEY         SUNNY     47  11  23 VRB5      30.43F

...WESTERN AND NORTH CENTRAL NEBRASKA...

CITY           SKY/WX    TMP DP  RH WIND       PRES   REMARKS
VALENTINE      SUNNY     45  18  34 NW10      30.44R
AINSWORTH      SUNNY     42  21  43 N12       30.44R
ONEILL         SUNNY     42  25  51 N12G23    30.44R
BROKEN BOW     SUNNY     46  20  35 N16       30.43S
IMPERIAL       SUNNY     46  21  37 N13       30.46S
NORTH PLATTE   SUNNY     46  17  31 NW7       30.44S
MCCOOK         SUNNY     48  21  34 NW10      30.46S

...EASTERN NEBRASKA...

CITY           SKY/WX    TMP DP  RH WIND       PRES   REMARKS
NORFOLK        SUNNY     40  24  53 N15       30.43R WCI  32
SO SIOUX CITY  CLOUDY    35  25  66 NW21G30   30.44R WCI  24
TEKAMAH        CLOUDY    39  25  57 NW18      30.45R WCI  30
COLUMBUS       SUNNY     41  21  45 N15       30.46R
ALBION         SUNNY     42  23  45 N15G21    30.42S
OMAHA EPPLEY   PTSUNNY   38  25  59 N16       30.44R WCI  29
OFFUTT AFB     CLOUDY    39  24  55 N10       30.43R WCI  32
MILLARD        CLOUDY    39  25  57 NW16G22   30.44R WCI  30
LINCOLN        MOSUNNY   42  26  53 N15       30.46R
NEBRASKA CITY  CLOUDY    38  21  50 N15G25    30.43R WCI  30
BEATRICE       SUNNY     43  26  51 N13       30.44S
FALLS CITY     CLOUDY    40  25  55 N18G24    30.44R WCI  31

...NORTHERN KANSAS...

CITY           SKY/WX    TMP DP  RH WIND       PRES   REMARKS
GOODLAND       SUNNY     48  18  30 N12       30.46S
HILL CITY      SUNNY     48  23  37 N8        30.48R
NORTON         CLEAR     48  19  32 NW10      30.46
PHILLIPSBURG   SUNNY     50  25  37 W9        30.47S
SMITH CENTER   SUNNY     46  23  39 NW10      30.47S
BELOIT         SUNNY     48  25  40 NW14      30.46S
HAYS           SUNNY     46  23  39 N13       30.48R
RUSSELL        SUNNY     49  25  39 N15       30.45S
CONCORDIA      SUNNY     46  25  43 N15       30.45S
SALINA         SUNNY     50  25  37 N14       30.47R
TOPEKA         PTSUNNY   43  26  51 N16       30.44R



USA.gov is the U.S. government's official web portal to all federal, state and local government web resources and services.